Findlay, OH

5:59 PM EDT on March 26, 2017 (GMT -0400)
Findlay

Weather History for KFDY - January, 2013

Change the Weather History Date:

Thursday, January 10, 2013

  Actual Average Record
Temperature  
Mean Temperature 32 °F -  
Max Temperature 39 °F 28 °F 59 °F (1950)
Min Temperature 25 °F 15 °F -11 °F (1982)
Degree Days  
Heating Degree Days 33    
Moisture  
Dew Point 28 °F    
Average Humidity 78    
Maximum Humidity 96    
Minimum Humidity 63    
Precipitation  
Precipitation 0.00 in - - ()
Sea Level Pressure  
Sea Level Pressure 30.43 in    
Wind  
Wind Speed 5 mph (ESE)    
Max Wind Speed 14 mph    
Max Gust Speed -    
Visibility 9 miles    
Events Rain    
Averages and records for this station are not official NWS values.
T = Trace of Precipitation, MM = Missing Value Source: NWS Daily Summary

Daily Weather History Graph

Daily Weather History Graph

Search for Another Location

Airport or City:

Trip Planner

Search our weather history database for the weather conditions in past years. The results will help you decide how hot, cold, wet, or windy it might be!

Date:

Astronomy

Jan. 10, 2013 Rise Set
Actual Time 7:59 AM EST 5:26 PM EST
Civil Twilight 7:28 AM EST 5:56 PM EST
Nautical Twilight 6:54 AM EST 6:30 PM EST
Astronomical Twilight 6:21 AM EST 7:03 PM EST
Moon 6:37 AM EST (1/10) 4:32 PM EST (1/10)
Length of Visible Light 10h 28m
Length of Day
9h 27m
Waning Crescent, 2% of the Moon is Illuminated
Jan 10
Waning Crescent
Jan 11
New
Jan 18
First Quarter
Jan 26
Full
Feb 3
Last Quarter

Hourly Weather History & Observations

Time (EST) Temp. Windchill Dew Point Humidity Pressure Visibility Wind Dir Wind Speed Gust Speed Precip Events Conditions
12:53 AM 33.1 °F 28.7 °F 28.0 °F 82% 30.52 in 10.0 mi WSW 4.6 mph - N/A   Clear
1:53 AM 32.0 °F - 27.0 °F 82% 30.53 in 10.0 mi Calm Calm - N/A   Clear
2:53 AM 28.9 °F - 27.0 °F 92% 30.53 in 9.0 mi Calm Calm - N/A   Clear
3:53 AM 30.0 °F - 27.0 °F 88% 30.52 in 10.0 mi Calm Calm - N/A   Clear
4:53 AM 25.0 °F - 23.0 °F 92% 30.52 in 7.0 mi Calm Calm - N/A   Clear
5:53 AM 27.0 °F 23.0 °F 25.0 °F 92% 30.52 in 7.0 mi North 3.5 mph - N/A   Clear
6:53 AM 30.0 °F 26.5 °F 27.0 °F 88% 30.52 in 10.0 mi ENE 3.5 mph - N/A   Clear
7:53 AM 25.0 °F - 24.1 °F 96% 30.55 in 8.0 mi Calm Calm - N/A   Clear
8:53 AM 28.0 °F - 26.1 °F 92% 30.56 in 6.0 mi Calm Calm - N/A   Clear
9:53 AM 30.9 °F 25.2 °F 27.0 °F 85% 30.56 in 8.0 mi East 5.8 mph - N/A   Clear
10:53 AM 34.0 °F 26.6 °F 28.0 °F 79% 30.56 in 10.0 mi East 9.2 mph - N/A   Clear
11:53 AM 36.0 °F 29.0 °F 28.9 °F 76% 30.51 in 10.0 mi East 9.2 mph - N/A   Clear
12:53 PM 37.9 °F 31.5 °F 30.0 °F 73% 30.48 in 10.0 mi ESE 9.2 mph - N/A   Clear
1:53 PM 39.9 °F 33.4 °F 28.9 °F 65% 30.44 in 10.0 mi SE 10.4 mph - N/A   Clear
2:53 PM 39.9 °F 33.4 °F 30.0 °F 68% 30.42 in 10.0 mi ESE 10.4 mph - N/A   Clear
3:53 PM 39.0 °F 32.3 °F 28.9 °F 67% 30.38 in 10.0 mi East 10.4 mph - N/A   Clear
4:53 PM 39.0 °F 32.8 °F 28.9 °F 67% 30.38 in 10.0 mi SE 9.2 mph - N/A   Clear
5:53 PM 37.9 °F 32.7 °F 30.0 °F 73% 30.35 in 10.0 mi East 6.9 mph - 0.00 in Rain Light Rain
6:53 PM 37.9 °F 31.5 °F 30.0 °F 73% 30.32 in 10.0 mi East 9.2 mph - 0.00 in Rain Light Rain
7:53 PM 37.9 °F 30.5 °F 30.0 °F 73% 30.28 in 10.0 mi ESE 11.5 mph - 0.00 in   Overcast
8:53 PM 37.9 °F 30.5 °F 28.9 °F 70% 30.26 in 10.0 mi ESE 11.5 mph - N/A   Overcast
9:53 PM 37.9 °F 31.5 °F 28.9 °F 70% 30.22 in 10.0 mi ESE 9.2 mph - N/A   Overcast
10:53 PM 39.0 °F 31.0 °F 28.0 °F 65% 30.16 in 10.0 mi ESE 13.8 mph - N/A   Overcast
11:53 PM 39.9 °F 32.5 °F 28.0 °F 63% 30.13 in 10.0 mi SE 12.7 mph - N/A   Overcast